{"data":{"norad_id":58449,"intl_designator":"2023-183N","name":"STARLINK-30943","alt_names":[],"object_type":"PAYLOAD","status":"ACTIVE","operator":null,"country":"US","launch_date":"2023-11-28","launch_site_code":"AFETR","launch_vehicle":null,"mission":null,"orbit_class":"UNKNOWN","rcs_meters":null,"size_class":null,"mass_kg":null,"dimensions":null,"purposes":["comms"],"wikipedia_slug":null,"has_3d_model":false,"image_url":null,"decayed_at":null,"tle_current":{"epoch":"2026-09-20T13:12:10.787904Z","epoch_age_seconds":142453,"freshness":"FRESH","line1":"1 58449U 23183N   26263.55012486 -.00000773  00000+0 -18585-4 0  9996","line2":"2 58449  43.0028 355.2895 0001070 265.7822  94.2908 15.27581646156836","mean_motion":15.27581646,"eccentricity":0.000107,"inclination_deg":43.0028,"raan_deg":355.2895,"arg_perigee_deg":265.7822,"mean_anomaly_deg":94.2908,"bstar":-1.8585e-5,"rev_number":15683,"period_min":94.266647139331,"perigee_km":482.31002094303,"apogee_km":483.77831371284,"semimajor_km":6861.1811673279,"source":"CELESTRAK","updated_at":"2026-09-21T09:00:33.877735Z"}}}